DW7792 Weather Reports


Display with metric or nautical units.
time (UTC)temp
F
wind
direction
speed
MPH
gust
MPH
rain 1hr
in
rain 24hr
in
rain mn
in
humidity
%
barometer
mb
20260507211548 52 145 4.0 10.0 0.00 0.85 0.85 98 1002.3
20260507210041 52 129 2.0 11.0 0.02 0.85 0.85 98 1002.2
20260507204539 51 122 9.0 15.0 0.03 0.85 0.85 98 1001.4
20260507203036 51 119 9.0 16.0 0.06 0.85 0.85 98 1001.5
20260507201543 51 117 10.0 17.0 0.11 0.85 0.85 98 1001.4
20260507200038 52 123 10.0 17.0 0.17 0.83 0.83 98 1002.0
20260507194531 52 113 7.0 10.0 0.22 0.82 0.82 98 1002.7
20260507193034 52 149 8.0 12.0 0.26 0.79 0.79 98 1002.7
20260507191528 52 166 6.0 11.0 0.28 0.74 0.74 97 1003.2
20260507190026 52 158 7.0 14.0 0.31 0.67 0.67 97 1003.6
20260507184525 52 193 10.0 16.0 0.35 0.60 0.60 97 1003.9
20260507183023 53 205 10.0 18.0 0.38 0.52 0.52 97 1004.4
20260507181523 53 179 9.0 14.0 0.38 0.45 0.45 98 1004.7
20260507180037 53 186 8.0 13.0 0.32 0.36 0.36 98 1004.7
20260507174525 52 185 9.0 16.0 0.22 0.25 0.25 98 1005.0
20260507173024 52 205 10.0 17.0 0.12 0.13 0.13 97 1005.1
20260507171516 51 171 9.0 20.0 0.06 0.06 0.06 97 1004.6
20260507170031 51 190 14.0 24.0 0.03 0.04 0.04 97 1004.5
20260507164512 51 142 12.0 20.0 0.02 0.03 0.03 97 1004.9
20260507161507 51 155 12.0 24.0 0.00 0.01 0.01 96 1005.6
20260507160004 51 141 14.0 26.0 0.00 0.01 0.01 96 1006.0
20260507154504 52 150 16.0 25.0 0.00 0.01 0.01 95 1006.4
20260507153107 52 157 15.0 27.0 0.00 0.01 0.01 96 1007.0
20260507144552 54 165 14.0 23.0 0.00 0.01 0.01 94 1008.2
20260507143103 55 157 16.0 28.0 0.00 0.01 0.01 94 1008.2
20260507141550 55 144 16.0 23.0 0.00 0.01 0.01 94 1008.3
20260507140047 54 174 14.0 23.0 0.00 0.01 0.01 95 1008.7
20260507134546 54 166 14.0 25.0 0.00 0.01 0.01 95 1008.8
20260507133048 53 160 12.0 24.0 0.00 0.01 0.01 95 1009.3
20260507131549 54 167 15.0 29.0 0.00 0.01 0.01 95 1009.2
20260507130058 54 172 15.0 25.0 0.00 0.01 0.01 95 1009.3
20260507124546 54 170 17.0 31.0 0.00 0.01 0.01 95 1009.2
20260507123041 54 154 15.0 28.0 0.00 0.01 0.01 96 1009.4
20260507121540 54 170 16.0 25.0 0.01 0.01 0.01 96 1009.2
20260507120037 54 164 14.0 22.0 0.01 0.01 0.01 96 1009.8
20260507114536 54 174 16.0 26.0 0.01 0.01 0.01 97 1009.7
20260507113035 54 154 14.0 24.0 0.01 0.01 0.01 96 1010.1
20260507111533 54 180 13.0 20.0 0.00 0.00 0.00 96 1010.0
20260507110033 54 171 14.0 26.0 0.00 0.00 0.00 97 1009.9
20260507104531 54 161 16.0 24.0 0.00 0.00 0.00 97 1010.0
20260507103034 53 173 11.0 25.0 0.00 0.00 0.00 97 1010.1
20260507101529 53 167 17.0 25.0 0.00 0.00 0.00 97 1010.0
20260507100026 53 157 16.0 24.0 0.00 0.00 0.00 97 1010.4
20260507094523 53 166 12.0 20.0 0.00 0.00 0.00 98 1010.6
20260507093020 53 165 13.0 18.0 0.00 0.00 0.00 98 1010.9
20260507091524 52 168 11.0 18.0 0.00 0.00 0.00 98 1011.3
20260507090017 52 137 6.0 12.0 0.00 0.00 0.00 98 1010.9
20260507084533 51 157 8.0 13.0 0.00 0.00 0.00 98 1011.1
20260507083012 51 137 8.0 12.0 0.00 0.00 0.00 98 1011.7
20260507081513 51 154 9.0 16.0 0.00 0.00 0.00 98 1011.9
20260507080010 51 170 8.0 13.0 0.00 0.00 0.00 97 1012.1
20260507074510 51 153 9.0 15.0 0.00 0.00 0.00 97 1011.9
20260507073007 51 119 8.0 12.0 0.00 0.00 0.00 97 1011.7
20260507071505 50 141 6.0 11.0 0.00 0.00 0.00 97 1012.3
20260507070002 50 105 6.0 11.0 0.00 0.00 0.00 97 1012.9
20260507064501 50 129 5.0 12.0 0.00 0.00 0.00 97 1013.2
20260507063059 50 101 9.0 15.0 0.00 0.00 0.00 97 1013.3
20260507061557 50 107 7.0 13.0 0.00 0.00 0.00 97 1013.3
20260507060156 50 125 9.0 14.0 0.00 0.00 0.00 97 1013.3
20260507054611 50 118 8.0 13.0 0.00 0.00 0.00 97 1013.7
20260507053102 50 108 6.0 11.0 0.00 0.00 0.00 97 1014.1
20260507051554 50 117 8.0 11.0 0.00 0.00 0.00 97 1014.4
20260507050115 50 109 6.0 10.0 0.00 0.00 0.00 96 1014.8
20260507044551 50 111 7.0 10.0 0.00 0.00 0.00 96 1015.2
20260507043040 50 109 6.0 10.0 0.00 0.00 0.00 96 1015.5
20260507041542 50 122 8.0 10.0 0.00 0.00 0.00 96 1015.8
20260507040039 50 109 6.0 11.0 0.00 0.00 0.00 96 1016.0
20260507034532 50 109 8.0 12.0 0.00 0.00 0.00 96 1016.4
20260507033029 50 124 6.0 10.0 0.00 0.00 0.00 96 1016.7
20260507031528 50 116 6.0 10.0 0.00 0.00 0.00 96 1017.0
20260507030024 49 114 7.0 12.0 0.00 0.00 0.00 95 1017.1
20260507024522 50 116 9.0 12.0 0.00 0.00 0.00 95 1017.3
20260507023019 50 117 9.0 11.0 0.00 0.00 0.00 94 1017.3
20260507021516 50 112 6.0 10.0 0.00 0.00 0.00 94 1017.4
20260507020017 50 115 6.0 10.0 0.00 0.00 0.00 94 1017.6
20260507014512 51 127 8.0 13.0 0.00 0.00 0.00 93 1017.8
20260507013010 51 99 7.0 12.0 0.00 0.00 0.00 93 1017.7
20260507011509 52 99 7.0 11.0 0.00 0.00 0.00 93 1017.8
20260507010011 52 102 10.0 15.0 0.00 0.00 0.00 92 1017.9
20260507004507 52 97 9.0 11.0 0.00 0.00 0.00 92 1018.1
20260507003005 52 92 8.0 14.0 0.00 0.00 0.00 91 1018.1
20260507001504 52 106 10.0 15.0 0.00 0.00 0.00 90 1017.9
20260507000004 53 94 10.0 13.0 0.00 0.00 0.00 89 1018.0
20260506234501 53 129 9.0 14.0 0.00 0.00 0.00 88 1018.2
20260506233100 53 111 10.0 13.0 0.00 0.00 0.00 87 1017.9
20260506231556 54 150 8.0 14.0 0.00 0.00 0.00 86 1018.1
20260506224555 55 162 7.0 20.0 0.00 0.00 0.00 85 1017.8
20260506223055 55 124 10.0 18.0 0.00 0.00 0.00 84 1017.6
20260506221602 55 144 8.0 13.0 0.00 0.00 0.00 84 1017.5
20260506220055 54 158 10.0 14.0 0.00 0.00 0.00 83 1017.5
20260506214558 55 97 11.0 16.0 0.00 0.00 0.00 81 1017.6
20260506213056 56 132 10.0 17.0 0.00 0.00 0.00 79 1017.6